Weather observations for the past three days for
Shemya, Eareckson AFB
Imperial (Metric)
Date Time (hdt) Wind (mph) Vis. (mi.) Weather Sky Cond. Temperature (ºF) Relative Humidity Wind Chill (°F) Heat Index (°F) Pressure Precipitation (in)
Air Dwpt 6 hour altimeter (in) sea level (mb) 1 hr 3 hr 6 hr
Max. Min.
13 03:55 S 9 10.00 A Few Clouds FEW170 45.3 42.6 90% 41 30.06 1018.1
13 02:55 S 12 10.00 A Few Clouds FEW170 45 41.9 48.9 44.2 89% 40 30.07 1018.3
13 01:55 SE 9 10.00 A Few Clouds FEW200 FEW220 44.8 41.7 89% 40 30.08 1018.7
13 00:55 Calm 10.00 NULL NULL 44.8 41.7 89% 30.08 1019.0
12 23:55 SE 7 10.00 NULL NULL 44.2 41.5 90% 41 30.09 1019.3
12 22:55 Calm 9.00 NULL NULL 46.8 42.8 86% 30.07 1018.6
12 21:55 Calm 10.00 NULL NULL 47.1 41.5 81% 30.05 1018.0
12 20:55 E 6 10.00 NULL NULL 48.7 41.5 51.1 48.4 76% 47 30.05 1018.0
12 19:55 Calm 10.00 NULL NULL 49.5 41.5 74% 30.05 1017.9
12 18:55 E 7 10.00 NULL NULL 50.9 41.9 71% 30.04 1017.6
12 17:55 NE 8 10.00 NULL NULL 50.2 41.5 72% 30.01 1016.6
12 16:59 NE 7 20.00 Partly Cloudy FEW018 SCT055 50.7 42.1 72% 29.99 1015.9
12 15:59 NE 12 10.00 Mostly Cloudy SCT018 BKN055 49.6 41 72% 46 29.98 1015.6
12 14:59 NE 12 10.00 Mostly Cloudy BKN017 48.9 40.3 49.6 45.9 72% 45 29.97 1015.2
12 13:58 NE 15 10.00 Overcast OVC016 48.9 41 74% 44 29.91 1013.1
12 12:57 NE 12 10.00 Overcast OVC015 48.7 41.2 75% 44 29.87 1011.7
12 11:56 NE 18 10.00 Mostly Cloudy BKN015 48.4 41.5 77% 42 29.84 1010.5
12 10:58 NE 20 10.00 Mostly Cloudy BKN014 47.5 41.5 80% 41 29.81 1009.8
12 09:59 NE 18 10.00 Overcast OVC014 46.2 41.4 83% 40 29.81 1009.8
12 08:57 NE 24 7.00 Overcast and Breezy OVC013 45.7 42.1 46.8 45.5 87% 38 29.76 1008.0
12 07:55 NE 25 7.00 Overcast and Breezy BKN011 OVC020 45.7 42.6 89% 38 29.74 1007.1
12 06:55 NE 22 7.00 Overcast and Breezy OVC009 46 43.5 91% 39 29.74 1007.1
12 05:55 E 23 7.00 Overcast and Breezy OVC006 46.2 43.7 91% 39 29.73 1007.0
12 04:55 E 22 7.00 Overcast and Breezy OVC006 46.6 44.4 92% 39 29.74 1007.1
12 03:55 E 24 7.00 Overcast and Breezy OVC006 46.8 44.6 92% 39 29.74 1007.3
12 02:55 E 25 7.00 Overcast and Breezy OVC005 46.8 45.1 48.6 46.8 94% 39 29.74 1007.4
12 01:56 NE 21 7.00 Overcast and Breezy OVC005 47.3 45.3 93% 40 29.75 1007.6
12 00:55 Calm 9.00 NULL NULL 47.5 45.9 94% 29.78 1008.8
11 23:55 E 18 10.00 NULL NULL 47.7 46.2 95% 41 29.78 1008.8
11 22:55 Calm 10.00 NULL NULL 47.8 46.4 95% 29.75 1007.8
11 21:55 E 17 10.00 NULL NULL 48.2 46.8 95% 42 29.76 1008.1
11 20:55 NE 17 9.00 NULL NULL 48.7 47.1 50.4 48.6 94% 43 29.73 1007.1
11 19:55 NE 16 10.00 NULL NULL 48.9 47.3 94% 44 29.74 1007.4
11 18:55 Calm 9.00 NULL NULL 49.1 47.5 94% 29.7 1006.1
11 17:55 NE 16 10.00 NULL NULL 49.6 48 94% 44 29.72 1006.8
11 16:59 NE 18 10.00 Overcast OVC004 49.3 47.7 94% 43 29.65 1004.2
11 15:59 NE 17 10.00 Overcast OVC004 49.8 48.2 94% 44 29.62 1003.2
11 14:59 NE 16 10.00 Overcast OVC004 49.3 48.2 49.6 48.6 96% 44 29.61 1002.7
11 13:59 NE 16 10.00 Overcast OVC003 48.7 48.2 98% 43 29.59 1002.0
11 12:59 NE 18 2.50 Fog/Mist VV002 48.7 48.4 99% 43 29.56 1001.1
11 11:59 NE 15 1.50 Fog/Mist VV002 49.5 49.1 99% 44 29.52 1000.0
11 10:59 N 13 0.38 Light Rain Fog VV001 49.3 48.9 99% 45 29.52 999.8
11 09:59 N 7 0.50 Fog VV001 49.1 48.7 99% 47 29.5 999.2
11 08:55 N 6 10.00 NULL NULL 49.3 48.9 49.5 47.1 99% 47 29.49 998.9 0.22
11 07:55 NW 6 1.00 Light Rain Fog/Mist VV003 48.4 48 99% 46 29.49 998.8
11 06:55 NW 7 1.00 Light Rain Fog/Mist VV004 48 47.7 99% 45 29.49 998.7
11 05:55 W 8 1.00 Light Rain Fog/Mist VV004 48.2 47.8 99% 45 29.48 998.4 0.15
11 04:55 W 9 0.75 Light Rain Fog/Mist VV004 47.5 47.1 99% 44 29.49 998.7
11 03:55 W 10 1.75 Light Rain Fog/Mist VV005 47.8 47.5 99% 44 29.49 998.9
11 02:55 W 14 2.00 Light Rain Fog/Mist VV005 48.6 48.2 48.7 48.2 99% 44 29.51 999.5 0.52
11 01:57 W 12 1.00 Light Rain Fog/Mist VV004 48.2 47.8 99% 44 29.52 999.7
11 00:55 Calm 10.00 Light Rain NULL 48.4 48 99% 29.64 1004.0
10 23:55 Calm 1.25 Fog/Mist NULL 48.4 48 99% 29.64 1004.0
10 22:55 Calm 4.00 Fog/Mist NULL 48.4 48 99% 29.65 1004.4
10 21:55 Calm 1.38 Fog/Mist NULL 48.4 48 99% 29.66 1004.7
10 20:55 SW 14 1.00 Fog/Mist NULL 48.4 48 49.5 48 99% 43 29.67 1005.1
10 19:55 S 20 10.00 NULL NULL 48.7 48.4 99% 43 29.64 1004.0
10 18:55 Calm 2.75 Fog/Mist NULL 48.7 48.4 99% 29.66 1004.7
10 17:55 S 20 10.00 NULL NULL 49.3 48.9 99% 43 29.7 1006.1
10 16:59 S 14 3.00 Fog/Mist VV003 49.1 48.7 99% 44 29.57 1001.3
10 15:56 S 10 2.50 Light Rain Fog/Mist NULL 48.7 48.4 99% 45 29.58 1001.9
10 14:56 S 16 0.38 Light Rain Fog VV001 48.6 48.2 49.6 48 99% 43 29.59 1002.1 0.08
10 13:57 SW 13 0.75 Fog/Mist VV002 49.5 49.1 99% 45 29.6 1002.7
10 11:59 S 16 1.00 Fog/Mist VV002 48.4 48 99% 43 29.58 1002.0
10 10:56 SW 14 1.25 Light Rain Fog/Mist VV002 48.2 47.8 99% 43 29.59 1002.1
10 09:59 S 15 1.50 Fog/Mist VV002 48.7 48.4 99% 44 29.59 1002.1
10 08:55 S 12 0.38 Light Rain Fog VV001 48.9 48.6 49.5 47.1 99% 45 29.6 1002.3 0.58
10 07:55 S 10 0.25 Light Rain Fog VV001 48.9 48.6 99% 45 29.63 1003.4
10 06:55 S 8 1.00 Light Rain Fog/Mist VV003 48.2 48.2 100% 45 29.65 1004.1
10 05:55 SW 12 0.50 Light Rain Fog VV003 49.5 49.1 99% 45 29.68 1005.1 0.15
10 04:55 SW 9 0.50 Light Rain Fog VV003 48.9 48.6 99% 45 29.71 1006.3
Date Time (hdt) Wind (mph) Vis. (mi.) Weather Sky Cond. Air Dwpt Max. Min. Relative Humidity Wind Chill (°F) Heat Index (°F) altimeter (in) sea level (mb) 1 hr 3 hr 6 hr
6 hour
Temperature (ºF) Pressure Precipitation (in)